User: anonymous   Login
Location: Unspecified
(0.0000°N, 0.0000°E)
Time: 08:37:13
(UTC+00:00)
Language:

Explorer 31 - Orbit

View from above orbital plane
View from above orbital plane
View from above satellite
View from above satellite

Ground track
Ground track

The orbit data is extracted from the following two-line orbital elements,

1  1806U 65098B   18019.88057066 +.00000358 +00000-0 +11924-3 0  9998
2  1806 079.8043 348.3256 1439193 016.2803 347.9870 12.05533044278494
Epoch (UTC): 19 January 2018 21:08:01
Eccentricity: 0.1439193
inclination: 79.8043°
perigee height: 500 km
apogee height: 2812 km
right ascension of ascending node: 348.3256°
argument of perigee: 16.2803°
revolutions per day: 12.05533044
mean anomaly at epoch: 347.9870°
orbit number at epoch: 27849

The dashed part of the orbit path shows where the satellite is in the earth's shadow,  

DLR